Weather Service Report


115 
ASUS44 KFWD 271515
RWRTX 
NORTH TEXAS HOURLY WEATHER ROUNDUP
NATIONAL WEATHER SERVICE FORT WORTH TX
900 AM CST FRI FEB 27 2015

NOTE: "FAIR" INDICATES FEW OR NO CLOUDS BELOW 12,000 FEET WITH NO
SIGNIFICANT WEATHER AND/OR OBSTRUCTIONS TO VISIBILITY.

TXZ118-119-271600-
DALLAS/FORT WORTH METROPLEX
  
CITY           SKY/WX    TMP DP  RH WIND       PRES   REMARKS
DFW AIRPORT    LGT SNOW  26  15  63 E12       30.50R VSB 3/4 WCI  16  
DALLAS LOVE    LGT SNOW  27  15  61 NE8       30.51R WCI  19          
FTW MEACHAM    SNOW      25  18  74 NE10      30.49R VSB 1/2 WCI  15  
DAL-EXECUTIVE  LGT SNOW  26  16  65 NE12      30.48R WCI  16          
FTW-ALLIANCE   LGT SNOW  23  16  74 NE7       30.50R VSB 1   WCI  15  
FTW-SPINKS     LGT SNOW  25  19  80 NE10      30.50R VSB 1   WCI  15  
ARLINGTON      LGT SNOW  27  16  63 N9        30.50R WCI  18          
GRAND PRAIRIE  LGT SNOW  27  18  69 N7        30.52R WCI  19          
ADDISON        LGT SNOW  37  12  35 NE10G20   30.51R WCI  30          
MESQUITE       CLOUDY    27  14  59 N9        30.50R WCI  17          
LANCASTER      CLOUDY    28  14  54 NE10      30.50R WCI  19          
$$

TXZ091>094-102>105-117-120-121-131>134-271600-
NORTH CENTRAL TEXAS
  
CITY           SKY/WX    TMP DP  RH WIND       PRES   REMARKS
SHRMAN/DENISON PTSUNNY   26  13  59 NE10      30.50R WCI  15          
GAINESVILLE    CLOUDY    23  10  56 NE12      30.51S WCI  12          
BOWIE          LGT SNOW  22  14  72 N9        30.51R VSB 1   WCI  11  
BRIDGEPORT     LGT SNOW  22  21  95 NE6       30.53R VSB 1   WCI  15  
DECATUR        LGT SNOW  22  17  83 NE6       30.49R VSB 3/4 WCI  14  
DENTON         HVY SNOW  22  16  78 NE9       30.53R VSB 1/4 WCI  12  
MCKINNEY       CLOUDY    26  12  55 NE9       30.50R WCI  17          
GREENVILLE     CLOUDY    30  18  59 NE5       30.50R WCI  25          
TERRELL        CLOUDY    30  18  60 NE10      30.48R WCI  21          
WAXAHACHIE     LGT SNOW  26  21  81 NE9       30.48R WCI  17          
CLEBURNE       LGT SNOW  23  23 100 N9        30.48R VSB 1   WCI  13  
GRANBURY       LGT SNOW  25  22  89 N5        30.49S VSB 1   WCI  19  
$$

TXZ083>090-098>101-113>116-127>130-139>142-154-155-271600-
WESTERN NORTH TEXAS
  
CITY           SKY/WX    TMP DP  RH WIND       PRES   REMARKS
WICHITA FALLS  SNOW      19  13  77 NE17      30.53R VSB 1/2 WCI   4  
WF-KICKAPOO    LGT SNOW  23  13  65 NE14      30.54R WCI  10          
VERNON         CLOUDY    19  13  76 NE15      30.52S VSB 1/4 WCI   5  
ABILENE        LGT SNOW  21  18  88 NE9       30.39R FOG     WCI  11  
ABILENE-DYESS  MIX PCPN  21  18  86 NE9       30.39R FOG     WCI  11  
BRECKENRIDGE   SNOW      23  21  92 NE10      30.46R VSB 1/2 WCI  12  
GRAHAM         LGT SNOW  22  20  94 NE3       30.48R VSB 3/4          
MINERAL WELLS  SNOW      22  19  89 NE8       30.47R VSB 1/4 WCI  12  
STEPHENVILLE   CLOUDY    23  20  87 NE9       30.45R WCI  13          
COMANCHE       CLOUDY    24  22  91 NE10      30.41S WCI  13          
BROWNWOOD      CLOUDY    27  19  74 NE10      30.41R WCI  17          
COLEMAN        CLOUDY    25  22  88 NE12      30.38R WCI  14          
BRADY          CLOUDY    28  18  64 E8        30.33R WCI  20          
$$

TXZ143>147-156>162-174-175-271600-
CENTRAL TEXAS
  
CITY           SKY/WX    TMP DP  RH WIND       PRES   REMARKS
WACO           CLOUDY    29  19  66 N12       30.47R WCI  19          
WACO-MCGREGOR    N/A     28  18  64 N9        30.46S WCI  20          
HILLSBORO      MIX PCPN  27  21  77 N8        30.47R WCI  19          
CORSICANA      CLOUDY    30  20  66 NE9       30.48R WCI  22          
MEXIA          CLOUDY    31  21  66 MISG      30.45R                  
HEARNE         CLOUDY    35  25  67 NE9       30.45S WCI  27          
CAMERON        CLOUDY    33  24  68 N8        30.44S WCI  26          
TEMPLE         CLOUDY    30  16  55 N9        30.42S WCI  22          
KILLEEN        CLOUDY    28  19  66 N12       30.40R WCI  18          
KILLEEN-SKYLRK CLOUDY    30  16  55 N10       30.41R WCI  21          
FORT HOOD      CLOUDY    29  19  64 NE8       30.41R WCI  21          
GATESVILLE     CLOUDY    30  19  64 NE9       30.45R WCI  22          
HAMILTON       CLOUDY    26  21  81 NE8       30.42R WCI  18          
LAMPASAS       CLOUDY    30  21  68 NE10      30.39S WCI  21          
$$

TXZ095>097-106>112-122>126-135>138-148>153-164>167-271600-
EAST TEXAS
  
CITY           SKY/WX    TMP DP  RH WIND       PRES   REMARKS
PARIS          CLOUDY    27  12  54 NE15      30.50S WCI  15          
SULPHUR SPRNGS CLOUDY    29  18  63 E10       30.50R WCI  19          
MOUNT PLEASANT PTSUNNY   29  19  66 E13G20    30.51S WCI  19          
GILMER         PTSUNNY   28  17  63 NE12      30.49R WCI  18          
MINEOLA        MOSUNNY   32  19  59 E5        30.48R WCI  27          
TYLER          CLOUDY    30  18  60 NE13      30.44R WCI  20          
LONGVIEW       PTSUNNY   31  17  56 E20G26    30.46S WCI  19          
MARSHALL       PTSUNNY   31  18  59 E8        30.51R WCI  23          
ATHENS         CLOUDY    30  21  69 NE6       30.45R WCI  24          
PALESTINE      CLOUDY    33  25  75 E8        30.48R WCI  25          
HENDERSON      CLOUDY    31  20  64 E12G22    30.46S WCI  21          
NACOGDOCHES    MOSUNNY   34  19  55 E9G16     30.44R WCI  26          
LUFKIN         PTSUNNY   37  24  59 NE12G21   30.43R WCI  29          
$$

SUPPLEMENTAL OBSERVATIONS (CENTRAL)
  
CITY           SKY/WX    TMP DP  RH WIND       PRES   REMARKS
$$

SUPPLEMENTAL OBSERVATIONS (WEST)
  
CITY           SKY/WX    TMP DP  RH WIND       PRES   REMARKS
$$

SUPPLEMENTAL OBSERVATIONS (EAST)
  
CITY           SKY/WX    TMP DP  RH WIND       PRES   REMARKS
$$

SUPPLEMENTAL OBSERVATIONS ARE A COLLECTION OF AUTOMATED INSTRUMENTS
THAT ARE MAINTAINED BY A VARIETY OF FEDERAL AND STATE AGENCIES. 
CERTAIN ELEMENTS...SUCH AS HUMIDITY VALUES AND SUSTAINED WIND 
SPEEDS...MAY BE APPROXIMATED.


Return to Home page


Western Regional Climate Center, wrcc@dri.edu